DW8016 Weather Reports


time (UTC)temp
C
wind
direction
speed
KPH
gust
KPH
rain 1hr
cm
rain 24hr
cm
rain mn
cm
humidity
%
barometer
mb
20260502180728 16 219 0.0 6.4 0.00 0.00 0.00 41 1012.3
20260502170517 15 355 1.6 8.0 0.00 0.00 0.00 41 1012.7
20260502163526 14 304 0.0 8.0 0.00 0.00 0.00 43 1013.1
20260502162510 14 288 0.0 4.8 0.00 0.00 0.00 45 1013.2
20260502161458 14 296 1.6 8.0 0.00 0.00 0.00 44 1013.1
20260502160449 14 329 0.0 8.0 0.00 0.00 0.00 46 1013.2
20260502152330 13 59 0.0 8.0 0.00 0.00 0.00 51 1013.4
20260502151322 12 15 1.6 8.0 0.00 0.00 0.00 49 1013.6
20260502150334 12 44 1.6 9.7 0.00 0.00 0.00 51 1013.6
20260502121747 10 22 0.0 9.7 0.00 0.00 0.00 63 1013.4
20260502120803 10 334 1.6 9.7 0.00 0.00 0.00 64 1013.5
20260502115803 9 331 1.6 9.7 0.00 0.00 0.00 66 1013.4
20260502114745 9 355 3.2 9.7 0.00 0.00 0.00 66 1013.1
20260502113807 9 342 3.2 8.0 0.00 0.00 0.00 66 1013.2
20260502112750 9 337 3.2 9.7 0.00 0.00 0.00 65 1013.3
20260502111737 9 346 1.6 9.7 0.00 0.00 0.00 65 1013.3
20260502105554 10 329 1.6 9.7 0.00 0.00 0.00 65 1013.0
20260502104528 10 327 1.6 9.7 0.00 0.00 0.00 65 1012.8
20260502102423 10 320 1.6 6.4 0.00 0.00 0.00 64 1012.6
20260502101440 10 295 0.0 4.8 0.00 0.00 0.00 64 1012.6
20260502100425 10 300 1.6 8.0 0.00 0.00 0.00 63 1012.5
20260502091251 11 344 0.0 6.4 0.00 0.00 0.00 64 1011.8
20260502090301 11 348 0.0 4.8 0.00 0.00 0.00 64 1011.6
20260502071054 12 287 0.0 0.0 0.00 0.00 0.00 72 1011.6
20260502070047 12 287 0.0 1.6 0.00 0.00 0.00 72 1011.5
20260502065046 12 287 0.0 1.6 0.00 0.00 0.00 72 1011.3
20260502064026 12 287 0.0 1.6 0.00 0.00 0.00 71 1011.3
20260502061916 12 287 0.0 4.8 0.00 0.00 0.00 70 1011.5
20260502060852 13 261 0.0 6.4 0.00 0.00 0.00 70 1011.8
20260502055822 13 296 0.0 4.8 0.00 0.00 0.00 72 1011.9
20260502054816 13 290 0.0 1.6 0.00 0.00 0.00 72 1012.0
20260502053745 13 290 0.0 1.6 0.00 0.00 0.00 72 1011.9
20260502052713 13 290 0.0 0.0 0.00 0.00 0.00 74 1011.9
20260502051728 13 290 0.0 0.0 0.00 0.00 0.00 74 1012.0
20260502050706 13 290 0.0 0.0 0.00 0.00 0.00 75 1011.9
20260502045708 13 290 0.0 0.0 0.00 0.00 0.00 74 1011.9
20260502044649 13 290 0.0 0.0 0.00 0.00 0.00 75 1012.0
20260502042609 13 290 0.0 4.8 0.00 0.00 0.00 74 1012.0
20260502041538 13 294 0.0 0.0 0.00 0.00 0.00 75 1011.8
20260502040600 13 284 0.0 1.6 0.00 0.00 0.00 75 1011.6
20260502035600 13 284 0.0 0.0 0.00 0.00 0.00 71 1011.4
20260502034526 14 284 0.0 0.0 0.00 0.00 0.00 69 1011.4
20260502033515 15 284 0.0 12.9 0.00 0.00 0.00 67 1011.5
20260502032526 15 284 1.6 9.7 0.00 0.00 0.00 61 1011.1
20260502031540 15 201 0.0 4.8 0.00 0.00 0.00 61 1010.8
20260502030512 15 174 3.2 12.9 0.00 0.00 0.00 60 1010.6
20260502025445 15 158 3.2 11.3 0.00 0.00 0.00 59 1010.4
20260502024447 15 156 1.6 9.7 0.00 0.00 0.00 59 1010.4
20260502023414 15 123 1.6 9.7 0.00 0.00 0.00 57 1010.4
20260502022415 15 155 1.6 9.7 0.00 0.00 0.00 55 1010.4
20260502021427 15 181 1.6 8.0 0.00 0.00 0.00 53 1010.5
20260502020414 16 188 0.0 8.0 0.00 0.00 0.00 52 1010.6
20260502015358 16 148 0.0 6.4 0.00 0.00 0.00 51 1010.4
20260502014403 16 135 1.6 1.6 0.00 0.00 0.00 50 1010.5
20260502004841 17 193 3.2 11.3 0.00 0.00 0.00 43 1009.4
20260502003832 17 181 4.8 11.3 0.00 0.00 0.00 43 1009.2
20260502002838 17 162 3.2 17.7 0.00 0.00 0.00 43 1009.2
20260502001808 17 132 3.2 17.7 0.00 0.00 0.00 42 1009.2
20260502000826 17 157 1.6 9.7 0.00 0.00 0.00 42 1009.1
20260501235842 17 167 1.6 12.9 0.00 0.00 0.00 41 1009.2
20260501234845 17 158 4.8 12.9 0.00 0.00 0.00 41 1009.0
20260501233905 17 196 3.2 11.3 0.00 0.00 0.00 40 1008.9
20260501231738 18 159 1.6 11.3 0.00 0.00 0.00 39 1008.8
20260501230708 18 184 3.2 16.1 0.00 0.00 0.00 39 1008.9
20260501223400 18 203 6.4 27.4 0.00 0.00 0.00 37 1009.0
20260501222423 18 114 6.4 27.4 0.00 0.00 0.00 37 1009.2
20260501221423 18 132 6.4 19.3 0.00 0.00 0.00 37 1009.2
20260501220405 18 141 6.4 19.3 0.00 0.00 0.00 37 1009.3
20260501215357 19 159 6.4 17.7 0.00 0.00 0.00 36 1009.1
20260501214407 19 196 3.2 17.7 0.00 0.00 0.00 36 1009.3
20260501213408 20 159 3.2 22.5 0.00 0.00 0.00 36 1009.2
20260501212402 20 162 8.0 22.5 0.00 0.00 0.00 34 1009.4
20260501211423 20 137 8.0 19.3 0.00 0.00 0.00 33 1009.3
20260501210432 20 167 4.8 24.1 0.00 0.00 0.00 33 1009.4
20260501205412 20 138 8.0 24.1 0.00 0.00 0.00 35 1009.3
20260501204350 19 111 8.0 24.1 0.00 0.00 0.00 35 1009.5
20260501203341 19 236 9.7 24.1 0.00 0.00 0.00 34 1009.6
20260501202356 20 187 4.8 22.5 0.00 0.00 0.00 33 1009.8
20260501200222 19 183 8.0 19.3 0.00 0.00 0.00 32 1010.1
20260501195234 19 171 6.4 17.7 0.00 0.00 0.00 32 1010.5
20260501194215 19 274 4.8 16.1 0.00 0.00 0.00 32 1010.6
20260501192042 19 187 8.0 27.4 0.00 0.00 0.00 31 1011.0
20260501191015 18 98 6.4 22.5 0.00 0.00 0.00 34 1011.1
20260501184812 20 264 3.2 17.7 0.00 0.00 0.00 34 1011.3
20260501183824 19 129 6.4 17.7 0.00 0.00 0.00 34 1011.5